When you browse on this site, cookies collect data to enhance your experience and personalize the content and advertising you see.
Visit our Privacy Policy to learn more. By continuing to use the site, you agree to this use of cookies and data.
  • In Hungary
  • List of Countries
  • For 7 days
  • Water Temperature
  • Weather Map
  • News
  • Weather Widgets
  • user-avatar
    Login

    Hourly Weather Meneuztamak

    Today, 14 October, Monday

    Time Temperature Precipitation Wind Pressure Humidity
    00:00 +8°C° 0 mm 5 mps 743 mmHg 90%
    01:00 +7°C° 0 mm 4 mps 743 mmHg 89%
    02:00 +7°C° 0 mm 4 mps 743 mmHg 90%
    03:00 +6°C° 0 mm 5 mps 743 mmHg 90%
    04:00 +6°C° 0 mm 5 mps 744 mmHg 91%
    05:00 +5°C° 0 mm 6 mps 744 mmHg 91%
    06:00 +5°C° 0 mm 6 mps 744 mmHg 92%
    07:00 +5°C° 0 mm 6 mps 744 mmHg 92%
    08:00 +5°C° 0 mm 6 mps 744 mmHg 90%
    09:00 +7°C° 0 mm 6 mps 744 mmHg 87%
    10:00 +6°C° 0 mm 7 mps 745 mmHg 85%
    11:00 +8°C° 0.1 mm 7 mps 745 mmHg 80%
    12:00 +8°C° 0.1 mm 7 mps 745 mmHg 76%
    13:00 +9°C° 0.1 mm 7 mps 746 mmHg 72%
    14:00 +9°C° 0.1 mm 7 mps 746 mmHg 73%
    15:00 +9°C° 0.1 mm 7 mps 747 mmHg 74%
    16:00 +8°C° 0.1 mm 7 mps 747 mmHg 74%
    17:00 +8°C° 0 mm 6 mps 747 mmHg 77%
    18:00 +8°C° 0 mm 6 mps 748 mmHg 80%
    19:00 +8°C° 0 mm 6 mps 748 mmHg 83%
    20:00 +7°C° 0.1 mm 6 mps 748 mmHg 84%
    21:00 +7°C° 0.1 mm 6 mps 748 mmHg 85%
    22:00 +7°C° 0.1 mm 6 mps 748 mmHg 86%
    23:00 +6°C° 0 mm 5 mps 748 mmHg 87%

    Tomorrow, 15 October, Tuesday

    Time Temperature Precipitation Wind Pressure Humidity
    00:00 +6°C° 0 mm 5 mps 748 mmHg 89%
    01:00 +6°C° 0 mm 4 mps 748 mmHg 90%
    02:00 +5°C° 0 mm 4 mps 748 mmHg 91%
    03:00 +5°C° 0 mm 4 mps 748 mmHg 92%
    04:00 +5°C° 0 mm 4 mps 748 mmHg 93%
    05:00 +5°C° 0.3 mm 4 mps 748 mmHg 93%
    06:00 +5°C° 0.3 mm 4 mps 747 mmHg 93%
    07:00 +5°C° 0.3 mm 4 mps 746 mmHg 93%
    08:00 +6°C° 1.4 mm 5 mps 745 mmHg 94%
    09:00 +5°C° 1.4 mm 6 mps 744 mmHg 94%
    10:00 +6°C° 1.4 mm 7 mps 743 mmHg 95%
    11:00 +8°C° 0.6 mm 7 mps 743 mmHg 95%
    12:00 +9°C° 0.6 mm 8 mps 742 mmHg 94%
    13:00 +11°C° 0.6 mm 8 mps 741 mmHg 94%
    14:00 +11°C° 0.4 mm 7 mps 741 mmHg 92%
    15:00 +11°C° 0.4 mm 7 mps 741 mmHg 91%
    16:00 +11°C° 0.4 mm 6 mps 741 mmHg 89%
    17:00 +12°C° 0.5 mm 5 mps 742 mmHg 90%
    18:00 +10°C° 0.5 mm 5 mps 742 mmHg 92%
    19:00 +10°C° 0.5 mm 4 mps 742 mmHg 93%
    20:00 +10°C° 0.4 mm 4 mps 743 mmHg 92%
    21:00 +8°C° 0.4 mm 5 mps 744 mmHg 90%
    22:00 +7°C° 0.4 mm 5 mps 744 mmHg 89%
    23:00 +7°C° 0 mm 5 mps 745 mmHg 88%

    Day after tomorrow, 16 October, Wednesday

    Time Temperature Precipitation Wind Pressure Humidity
    00:00 +6°C° 0 mm 5 mps 746 mmHg 87%
    01:00 +6°C° 0 mm 5 mps 746 mmHg 86%
    02:00 +5°C° 0 mm 5 mps 747 mmHg 86%
    03:00 +3°C° 0 mm 5 mps 748 mmHg 87%
    04:00 +2°C° 0 mm 5 mps 749 mmHg 87%
    05:00 +2°C° 0 mm 5 mps 749 mmHg 88%
    06:00 +2°C° 0 mm 5 mps 750 mmHg 88%
    07:00 +2°C° 0 mm 5 mps 750 mmHg 89%
    08:00 +2°C° 0 mm 5 mps 751 mmHg 84%
    09:00 +2°C° 0 mm 5 mps 751 mmHg 80%
    10:00 +3°C° 0 mm 6 mps 752 mmHg 76%
    11:00 +3°C° 0 mm 6 mps 752 mmHg 74%
    12:00 +3°C° 0 mm 6 mps 753 mmHg 72%
    13:00 +3°C° 0 mm 6 mps 753 mmHg 70%
    14:00 +3°C° 0 mm 6 mps 754 mmHg 70%
    15:00 +3°C° 0 mm 6 mps 754 mmHg 70%
    16:00 +3°C° 0 mm 5 mps 755 mmHg 71%
    17:00 +2°C° 0 mm 5 mps 755 mmHg 72%
    18:00 +3°C° 0 mm 4 mps 755 mmHg 74%
    19:00 +3°C° 0 mm 4 mps 756 mmHg 75%
    20:00 +3°C° 0 mm 4 mps 756 mmHg 75%
    21:00 +1°C° 0 mm 4 mps 757 mmHg 74%
    22:00 +1°C° 0 mm 4 mps 757 mmHg 74%
    23:00 +2°C° 0 mm 3 mps 757 mmHg 76%

    17 October, Thursday

    Time Temperature Precipitation Wind Pressure Humidity
    00:00 +2°C° 0 mm 2 mps 757 mmHg 79%
    01:00 +2°C° 0 mm 2 mps 757 mmHg 82%
    02:00 +2°C° 0 mm 1 mps 758 mmHg 83%
    03:00 +2°C° 0 mm 1 mps 758 mmHg 85%
    04:00 +2°C° 0 mm 1 mps 759 mmHg 87%
    05:00 +2°C° 0 mm 1 mps 759 mmHg 86%
    06:00 +1°C° 0 mm 1 mps 759 mmHg 86%
    07:00 +1°C° 0 mm 1 mps 759 mmHg 85%
    08:00 +2°C° 0 mm 1 mps 759 mmHg 81%
    09:00 +2°C° 0 mm 2 mps 759 mmHg 76%
    10:00 +2°C° 0 mm 3 mps 759 mmHg 72%
    11:00 +3°C° 0 mm 3 mps 758 mmHg 71%
    12:00 +3°C° 0 mm 4 mps 758 mmHg 70%
    13:00 +4°C° 0 mm 4 mps 758 mmHg 69%
    14:00 +3°C° 0.1 mm 5 mps 757 mmHg 73%
    15:00 +2°C° 0.1 mm 5 mps 757 mmHg 77%
    16:00 +2°C° 0.1 mm 5 mps 756 mmHg 81%
    17:00 +2°C° 0 mm 5 mps 756 mmHg 79%
    18:00 +3°C° 0 mm 6 mps 755 mmHg 77%
    19:00 +3°C° 0 mm 6 mps 755 mmHg 75%
    20:00 +3°C° 0 mm 7 mps 754 mmHg 73%
    21:00 +3°C° 0 mm 7 mps 753 mmHg 71%
    22:00 +2°C° 0 mm 8 mps 753 mmHg 69%
    23:00 +2°C° 0 mm 8 mps 752 mmHg 68%

    18 October, Friday

    Time Temperature Precipitation Wind Pressure Humidity
    00:00 +2°C° 0 mm 9 mps 751 mmHg 68%
    01:00 +2°C° 0 mm 9 mps 751 mmHg 67%
    02:00 +2°C° 0 mm 9 mps 750 mmHg 67%
    03:00 +2°C° 0 mm 9 mps 749 mmHg 67%
    04:00 +2°C° 0 mm 9 mps 749 mmHg 67%
    05:00 +2°C° 0 mm 9 mps 748 mmHg 68%
    06:00 +2°C° 0 mm 9 mps 747 mmHg 69%
    07:00 +2°C° 0 mm 8 mps 747 mmHg 70%
    08:00 +2°C° 0.2 mm 8 mps 746 mmHg 73%
    09:00 +2°C° 0.2 mm 8 mps 746 mmHg 76%
    10:00 +4°C° 0.2 mm 8 mps 746 mmHg 79%
    11:00 +4°C° 0.2 mm 7 mps 746 mmHg 82%
    12:00 +4°C° 0.2 mm 7 mps 746 mmHg 85%
    13:00 +4°C° 0.2 mm 6 mps 746 mmHg 88%
    14:00 +3°C° 0.3 mm 6 mps 746 mmHg 83%
    15:00 +3°C° 0.3 mm 6 mps 746 mmHg 78%
    16:00 +2°C° 0.3 mm 6 mps 746 mmHg 73%
    17:00 +1°C° 0 mm 6 mps 747 mmHg 73%
    18:00 +1°C° 0 mm 6 mps 747 mmHg 73%
    19:00 -1°C° 0 mm 7 mps 748 mmHg 73%
    20:00 -1°C° 0 mm 7 mps 748 mmHg 75%
    21:00 -2°C° 0 mm 7 mps 748 mmHg 77%
    22:00 -2°C° 0 mm 6 mps 749 mmHg 79%
    23:00 -3°C° 0 mm 7 mps 749 mmHg 79%

    19 October, Saturday

    Time Temperature Precipitation Wind Pressure Humidity
    00:00 -3°C° 0 mm 7 mps 749 mmHg 79%
    01:00 -3°C° 0 mm 7 mps 750 mmHg 79%
    02:00 -3°C° 0 mm 7 mps 750 mmHg 79%
    03:00 -4°C° 0 mm 7 mps 750 mmHg 78%
    04:00 -5°C° 0 mm 8 mps 751 mmHg 77%
    05:00 -4°C° 0 mm 7 mps 751 mmHg 77%
    06:00 -4°C° 0 mm 7 mps 752 mmHg 76%
    07:00 -4°C° 0 mm 7 mps 753 mmHg 76%
    08:00 -4°C° 0 mm 7 mps 753 mmHg 74%
    09:00 -3°C° 0 mm 7 mps 754 mmHg 72%
    10:00 -3°C° 0 mm 7 mps 754 mmHg 70%
    11:00 -2°C° 0 mm 7 mps 755 mmHg 67%
    12:00 -2°C° 0 mm 6 mps 755 mmHg 63%
    13:00 -1°C° 0 mm 6 mps 756 mmHg 60%
    14:00 -1°C° 0 mm 6 mps 756 mmHg 59%
    15:00 0°C° 0 mm 5 mps 756 mmHg 57%
    16:00 0°C° 0 mm 5 mps 756 mmHg 56%
    17:00 -1°C° 0 mm 4 mps 757 mmHg 60%
    18:00 -2°C° 0 mm 4 mps 757 mmHg 64%
    19:00 -2°C° 0 mm 3 mps 757 mmHg 68%
    20:00 -2°C° 0 mm 3 mps 758 mmHg 67%
    21:00 -2°C° 0 mm 2 mps 758 mmHg 67%
    22:00 -3°C° 0 mm 2 mps 759 mmHg 67%
    23:00 -3°C° 0 mm 2 mps 759 mmHg 67%
    Show more